Regional Weather Roundup
Issued by NWS

Home | Current Version | Previous Version | Graphics & Text | Print | Product List | Glossary On
Versions: 1 2 3 4 5 6 7 8 9 10 11 12 13 14 15 16 17 18 19 20 21 22 23 24 25 26 27 28 29 30 31 32 33 34 35 36 37 38 39 40 41 42 43 44 45 46 47 48 49 50
000
ASUS43 KDMX 240401
RWRIA

WEATHER ROUNDUP FOR IOWA
NATIONAL WEATHER SERVICE DES MOINES IA
1000 PM CST THU NOV 23 2017

NOTE: "FAIR" INDICATES FEW OR NO CLOUDS BELOW 12,000 FEET WITH NO
SIGNIFICANT WEATHER AND/OR OBSTRUCTIONS TO VISIBILITY.

* - THESE STATIONS ARE NOT NWS STATIONS...THUS NOT UNDER NWS
QUALITY CONTROL.  THEY ALSO DO NOT REPORT WEATHER SUCH
AS PRECIPITATION OR FOG.

IAZ001>003-012>014-020>022-031>034-043>046-240500-
   NORTHWEST IOWA

CITY           SKY/WX    TMP DP  RH WIND       PRES   REMARKS
CARROLL *      PTCLDY    55  37  50 SW22G29   29.74F
CHEROKEE *     CLOUDY    51  38  59 S9        29.70F
DENISON *      PTCLDY    52  37  58 S14G21    29.76F
LE MARS *      CLOUDY    52  39  62 S14       29.68F
ORANGE CITY *  CLOUDY    54  41  62 S13       29.67F
SHELDON *      CLOUDY    54  39  58 S15       29.65F
SIOUX CITY     PTCLDY    47  38  71 SE8       29.70F
SPENCER        PTCLDY    49  37  63 S9        29.69F
STORM LAKE *   CLOUDY    50  37  62 S14       29.71F
$$

IAZ055>058-069>071-079>083-090>094-240500-
   SOUTHWEST IOWA

CITY           SKY/WX    TMP DP  RH WIND       PRES   REMARKS
ATLANTIC *     CLOUDY    50  37  62 S9        29.79F
AUDUBON *      PTCLDY    54  37  54 S12       29.79F
CLARINDA *     PTCLDY    48  37  66 S6          N/A
COUNCIL BLFS * MOCLDY    59  41  51 SW12      29.78F
CRESTON *      CLOUDY    48  36  61 S10       29.84F
HARLAN  *      CLOUDY    48  37  66 S10       29.81F
LAMONI         PTCLDY    48  35  60 S9        29.85F
RED OAK *      CLOUDY    50  37  62 S6        29.81F
SHENANDOAH *   CLOUDY    52  37  58 CALM      29.82F
$$

IAZ047>049-059>061-072>074-084-240500-
   CENTRAL IOWA

CITY           SKY/WX    TMP DP  RH WIND       PRES   REMARKS
AMES           MOCLDY    41  33  73 SE6       29.79F
ANKENY *       MOCLDY    43  34  70 SE6       29.81F
BOONE *        CLOUDY    50  34  53 S9        29.77F
CHARITON *     PTCLDY    45  36  70 S9        29.83F
DES MOINES     CLOUDY    46  34  62 S10       29.81F
GRINNELL*      PTCLDY    40  32  72 S7        29.84F
KNOXVILLE *    PTCLDY    46  32  57 S9        29.82F HAZE
MARSHALLTOWN   PTCLDY    41  31  67 S9        29.81F
NEWTON *       PTCLDY    41  32  70 S8        29.83F
PELLA *        PTCLDY    42  32  67 S5        29.85F
PERRY *          N/A     45  33  62 S10       29.77F
$$

IAZ004>006-015-016-023>025-035-036-240500-
   NORTH CENTRAL IOWA

CITY           SKY/WX    TMP DP  RH WIND       PRES   REMARKS
ALGONA *       PTCLDY    45  34  65 S15       29.71F
CLARION *      PTCLDY    43  34  70 S13       29.74F
ESTHERVILLE    PTCLDY    40  33  76 S13       29.67F WCI  32
FORT DODGE *   CLOUDY    48  35  60 S12       29.75F
MASON CITY     CLOUDY    38  30  73 S12       29.75F WCI  30
FOREST CITY *    N/A     41  32  70 S7        29.72F
WEBSTER CITY * PTCLDY    43  32  65 S12       29.74F
IOWA FALLS *     N/A     42  33  70 S10       29.79F
$$

IAZ007>011-017>019-026>030-037>042-050>054-066-240500-
   NORTHEAST IOWA

CITY           SKY/WX    TMP DP  RH WIND       PRES   REMARKS
CEDAR RAPIDS   CLOUDY    35  28  75 S7        29.84F WCI  29
CHARLES CITY * CLOUDY    39  30  70 S12       29.77F WCI  32
CLINTON *      CLEAR     33  26  75 S7        29.89F WCI  27
DECORAH *      CLEAR     39  28  65 S8        29.77F WCI  34
DUBUQUE        CLEAR     33  27  78 S10       29.84F WCI  25
MONTICELLO *   CLEAR     32  27  80 SE5       29.85F WCI  27
OELWEIN *      CLOUDY    36  30  80 S10       29.81F WCI  28
WATERLOO       CLEAR     38  29  70 S7        29.81F WCI  33
$$

IAZ064-065-067-068-078-240500-
   EAST CENTRAL IOWA

CITY           SKY/WX    TMP DP  RH WIND       PRES   REMARKS
DAVENPORT      FLURRIES  32  25  75 S7        29.91F WCI  26
IOWA CITY      CLOUDY    31  26  82 CALM      29.88F
MT. PLEASANT * CLEAR     34  28  79 S8        29.89F WCI  27
MUSCATINE *    CLEAR     32  27  80 CALM      29.89F
QUAD CITIES    CLEAR     30  25  81 CALM      29.90S
$$

IAZ062-063-075>077-085>089-095>099-240500-
   SOUTHEAST IOWA

CITY           SKY/WX    TMP DP  RH WIND       PRES   REMARKS
BURLINGTON     CLEAR     37  30  75 S6        29.90F WCI  32
FAIRFIELD *    CLEAR     41  30  65 S9        29.86F
FORT MADISON * CLEAR     39  30  70 S7        29.91F WCI  34
KEOKUK *       CLEAR     41  30  65 S5        29.90F
OSKALOOSA *      N/A     37  31  79 S10       29.86S WCI  29
OTTUMWA        CLOUDY    42  32  67 S10       29.86F
WASHINGTON *   CLEAR     36  30  80 S8        29.88F WCI  29
$$

ABBREVIATIONS USED IN REMARKS
   TC - TEMPERATURES IN CELSIUS
  WCI - WIND CHILL INDEX
   HX - HEAT INDEX
  VSB - VISIBILITY
$$





USA.gov is the U.S. government's official web portal to all federal, state and local government web resources and services.